Regional Weather Roundup
Issued by NWS Sterling, VA

Home | Current Version | Previous Version | Graphics & Text | Print | Product List | Glossary On
Versions: 1 2 3 4 5 6 7 8 9 10 11 12 13 14 15 16 17 18 19 20 21 22 23 24 25 26 27
000
ASUS41 KLWX 230411
RWRLWX

REGIONAL WEATHER ROUNDUP
NATIONAL WEATHER SERVICE BALTIMORE MD/WASHINGTON DC
1100 PM EST SUN JAN 22 2017

Note: "FAIR" indicates few or no clouds below 12,000 feet
with no significant weather and/or obstructions to visibility.
 TC=TEMPERATURE CELSIUS

 * =Non NWS site. Station does not report precipitation (e.g. rain,
    snow, etc.), thunder, or fog.

DCZ001-MDZ009-015-VAZ040>042-051-053>054-230500-
WASHINGTON METRO

CITY           SKY/WX    TMP DP  RH WIND       PRES   REMARKS
WASHINGTON NAT LGT RAIN  50  49  96 NE10      29.64R FOG
DULLES         LGT RAIN  50  48  93 E10       29.62S
ANDREWS AFB    CLOUDY    48  48 100 NE12      29.61S FOG
FT BELVOIR     LGT RAIN  50  48  94 VRB5      29.61S FOG
QUANTICO       LGT RAIN  50  50 100 NE12      29.61S VSB 1
COLLEGE PARK*  CLOUDY    46  46 100 NE9       29.64R
LEESBURG*      RAIN      48  48 100 NE5       29.64R
GAITHERSBURG*  CLOUDY    48  46  93 E7        29.67S

$$

MDZ006>007-011-014-230500-
BALTIMORE METRO

CITY           SKY/WX    TMP DP  RH WIND       PRES   REMARKS
BWI AIRPORT    CLOUDY    48  48 100 NE15      29.65S FOG
MD SCIENCE CTR   N/A     50  46  86 MISG      29.66R
ANNAPOLIS      CLOUDY    50  48  93 NE9       29.65R FOG
FORT MEADE*    CLOUDY    46  46 100 E6        29.67R

$$

MDZ012-015-019>023-230500-
MARYLAND EASTERN SHORE

CITY           SKY/WX    TMP DP  RH WIND       PRES   REMARKS
OCEAN CITY     LGT RAIN  48  48 100 NE14G22   29.61R FOG
SALISBURY      LGT RAIN  50  49  96 NE15      29.61R FOG
BAY BRIDGE AP* CLOUDY    50  48  93 E8        29.65R FOG
CAMBRIDGE*     CLOUDY    50  48  93 NE13G18   29.61S
EASTON*        CLOUDY    51  49  93 E9G20     29.67R FOG

$$

MDZ017>025-230500-
SOUTHERN MARYLAND

CITY           SKY/WX    TMP DP  RH WIND       PRES   REMARKS
PATUXENT RIVER FOG       48  48 100 NE10      29.58F VSB 3/4
ST INIGOES     CLOUDY    50  49  96 NE9       29.57F FOG
LEONARDTOWN*   CLOUDY    46  46 100 NE3       29.60F

$$

MDZ003>005-230500-
NORTH CENTRAL MARYLAND

CITY           SKY/WX    TMP DP  RH WIND       PRES   REMARKS
FREDERICK*     CLOUDY    45  45 100 N9        29.68R FOG
HAGERSTOWN APT CLOUDY    49  45  86 NE9       29.64S
WESTMINSTER*   LGT RAIN  46  46 100 E9G16     29.65R

$$

MDZ501>502-230500-
WESTERN MARYLAND

CITY           SKY/WX    TMP DP  RH WIND       PRES   REMARKS
OAKLAND*         N/A     41  41 100 E18G26    29.55F FOG
CUMBERLAND*    NOT AVBL

$$

VAZ025>031-230500-
SHENANDOAH VALLEY

CITY           SKY/WX    TMP DP  RH WIND       PRES   REMARKS
WINCHESTER*    RAIN      45  43  93 NE5       29.62R
FRONT ROYAL*   CLOUDY    45  45 100 N5        29.60F
LURAY*         DRIZZLE   46  46 100 N10       29.59F
NEW MARKET*    CLOUDY    46  44  95 N10       29.58S
STAUNTON*      DRIZZLE   46  45  99 N5        29.60R
WAYNESBORO*    CLOUDY    46  45  96 NW5       29.58R

$$

WVZ021-048>050-054>055-230500-
EASTERN WEST VIRGINIA PANHANDLE

CITY           SKY/WX    TMP DP  RH WIND       PRES   REMARKS
MARTINSBURG    LGT RAIN  46  45  96 N6        29.63R FOG
PETERSBURG*    HVY RAIN  46  46  98 CALM      29.61S

$$

VAZ036>039-050-230500-
CENTRAL FOOTHILLS

CITY           SKY/WX    TMP DP  RH WIND       PRES   REMARKS
CHARLOTTESVILL CLOUDY    50  49  96 NE8       29.59R FOG
CULPEPER*      DRIZZLE   50  50 100 N3        29.61F
ORANGE*        DRIZZLE   50  50 100 CALM      29.61S
GORDONSVILLE*  CLOUDY    48  48 100 NE6       29.59R FOG
WARRENTON*     DRIZZLE   50  48  91 NE5       29.60F

$$

VAZ055>057-230500-
NORTH AND CENTRAL PIEDMONT

CITY           SKY/WX    TMP DP  RH WIND       PRES   REMARKS
FREDERICKSBRG* CLOUDY    50  50 100 NE6       29.59F FOG
STAFFORD*      DRIZZLE   49  49 100 NE6       29.64F

$$

NCZ024-NYZ072-PAZ021-071-VAZ022-071-230500-
OTHER REGIONAL OBSERVATIONS

CITY           SKY/WX    TMP DP  RH WIND       PRES   REMARKS
NEW YORK CITY  CLOUDY    45  40  82 E16G29    29.83R
PHILADELPHIA   CLOUDY    47  43  86 E15G24    29.73R
PITTSBURGH     CLOUDY    53  46  77 E12       29.54R
ROANOKE        LGT RAIN  50  48  93 E8        29.53F
RICHMOND       CLOUDY    49  49 100 NE5       29.57S FOG
RALEIGH        LGT RAIN  53  52  96 E10       29.45F

$$

ANZ530>537-230500-
MARINE OBSERVATIONS

STATION/POSITION TIME  TEMP    WIND        PRES
                       AIR SEA DIR/SP/G
                 (UTC) (F)     (DEG/KT/KT) (MB)
THOMAS PT LIGHT  0400   47 40   30/ 10/ 11   N/A
BALT KEY BRIDGE  0348   47      50/ 11/ 12 1004.2R
COVE POINT       0348   48      60/  9/ 12 1003.2R
LEWISETTA        0348   47 44   50/  7/ 11 1001.0F
SOLOMONS ISLAND  0342   49 42   40/  7/  8   N/A
PINEY POINT      0336           70/  7/  9   N/A

$$





USA.gov is the U.S. government's official web portal to all federal, state and local government web resources and services.